timestamp,surface_pressure_avg,surface_temp_avg,battery_voltage,lat,long
2024-05-03 00:09:00+00:00,228.5197,2.4,12.25,47.84626,-54.09684
2024-05-03 00:19:00+00:00,226.9698,2.44,12.25,47.84626,-54.09684
2024-05-03 00:29:00+00:00,226.6564,2.47,12.25,47.84626,-54.09684
2024-05-03 00:39:00+00:00,224.6098,2.49,12.25,47.84626,-54.09684
2024-05-03 00:49:00+00:00,222.4415,2.5,12.25,47.84626,-54.09684
2024-05-03 00:59:00+00:00,222.2797,2.5,12.25,47.84626,-54.09684
2024-05-03 01:09:00+00:00,223.1964,2.5,12.25,47.84626,-54.09684
2024-05-03 01:19:00+00:00,222.1548,2.5,12.25,47.84626,-54.09684
2024-05-03 01:29:00+00:00,219.7815,2.5,12.25,47.84626,-54.09684
2024-05-03 01:39:00+00:00,219.9315,2.5,12.25,47.84626,-54.09684
2024-05-03 01:49:00+00:00,220.8798,2.5,12.25,47.84626,-54.09684
2024-05-03 01:59:00+00:00,222.4581,2.5,12.25,47.84626,-54.09684
2024-05-03 02:09:00+00:00,224.0481,2.5,12.25,47.84626,-54.09684
2024-05-03 02:19:00+00:00,226.4265,2.42,12.25,47.84626,-54.09684
2024-05-03 02:29:00+00:00,230.2265,2.4,12.25,47.84626,-54.09684
2024-05-03 02:39:00+00:00,232.8831,2.4,12.25,47.84626,-54.09684
2024-05-03 02:49:00+00:00,233.4131,2.41,12.25,47.84626,-54.09684
2024-05-03 02:59:00+00:00,236.1798,2.48,12.25,47.84626,-54.09684
2024-05-03 03:09:00+00:00,241.3047,2.5,12.25,47.84626,-54.09684
2024-05-03 03:19:00+00:00,246.5898,2.5,12.17,47.84626,-54.09684
2024-05-03 03:29:00+00:00,249.8064,2.4,12.17,47.84626,-54.09684
2024-05-03 03:39:00+00:00,253.5248,2.3,12.17,47.84626,-54.09684
2024-05-03 03:49:00+00:00,257.8964,2.3,12.17,47.84626,-54.09684
2024-05-03 03:59:00+00:00,261.2731,2.2,12.17,47.84626,-54.09684
2024-05-03 04:09:00+00:00,263.2748,2.1,12.17,47.84626,-54.09684
2024-05-03 04:19:00+00:00,267.7381,2.1,12.25,47.84626,-54.09684
2024-05-03 04:29:00+00:00,275.938,2.15,12.25,47.84626,-54.09684
2024-05-03 04:39:00+00:00,281.9747,2.09,12.25,47.84626,-54.09684
2024-05-03 04:49:00+00:00,286.9947,2.07,12.25,47.84626,-54.09684
2024-05-03 04:59:00+00:00,293.868,2.04,12.25,47.84626,-54.09684
2024-05-03 05:09:00+00:00,301.423,2.01,12.25,47.84626,-54.09684
2024-05-03 05:19:00+00:00,304.7297,2.0,12.17,47.84626,-54.09684
2024-05-03 05:29:00+00:00,308.6014,2.0,12.17,47.84626,-54.09684
2024-05-03 05:39:00+00:00,314.008,2.0,12.17,47.84626,-54.09684
2024-05-03 05:49:00+00:00,318.803,2.0,12.17,47.84626,-54.09684
2024-05-03 05:59:00+00:00,322.5264,2.0,12.17,47.84626,-54.09684
2024-05-03 06:09:00+00:00,325.778,2.0,12.17,47.84626,-54.09684
2024-05-03 06:19:00+00:00,329.4146,2.0,12.17,47.84626,-54.09684
2024-05-03 06:29:00+00:00,333.3279,2.09,12.17,47.84626,-54.09684
2024-05-03 06:39:00+00:00,335.6729,2.12,12.17,47.84626,-54.09684
2024-05-03 06:49:00+00:00,337.0547,2.2,12.17,47.84626,-54.09684
2024-05-03 06:59:00+00:00,338.7128,2.2,12.17,47.84626,-54.09684
2024-05-03 07:09:00+00:00,340.1496,2.2,12.17,47.84626,-54.09684
2024-05-03 07:19:00+00:00,339.7429,2.1,12.17,47.84626,-54.09684
2024-05-03 07:29:00+00:00,338.023,2.01,12.17,47.84626,-54.09684
2024-05-03 07:39:00+00:00,339.5630000000001,2.0,12.17,47.84626,-54.09684
2024-05-03 07:49:00+00:00,340.2597,1.99,12.17,47.84626,-54.09684
2024-05-03 07:59:00+00:00,335.3679,2.0,12.17,47.84626,-54.09684
2024-05-03 08:09:00+00:00,332.6597,2.0,12.17,47.84626,-54.09684
2024-05-03 08:19:00+00:00,331.7762,2.0,12.17,47.84626,-54.09684
2024-05-03 08:29:00+00:00,328.1880000000001,2.0,12.17,47.84626,-54.09684
2024-05-03 08:39:00+00:00,322.7047,2.02,12.17,47.84626,-54.09684
2024-05-03 08:49:00+00:00,321.5897,2.1,12.17,47.84626,-54.09684
2024-05-03 08:59:00+00:00,317.8613,2.1,12.17,47.84626,-54.09684
2024-05-03 09:09:00+00:00,308.8863,2.12,12.17,47.84626,-54.09684
2024-05-03 09:19:00+00:00,302.4914,2.13,12.17,47.84626,-54.09684
2024-05-03 09:29:00+00:00,298.1063,2.1,12.17,47.84626,-54.09684
2024-05-03 09:39:00+00:00,291.908,2.13,12.17,47.84626,-54.09684
2024-05-03 09:49:00+00:00,283.1397,2.2,12.17,47.84626,-54.09684
2024-05-03 09:59:00+00:00,277.7531,2.3,12.17,47.84626,-54.09684
2024-05-03 10:09:00+00:00,271.8714,2.36,12.17,47.84626,-54.09684
2024-05-03 10:19:00+00:00,263.0864,2.4,12.17,47.84626,-54.09684
2024-05-03 10:29:00+00:00,254.9581,2.4,12.17,47.84626,-54.09684
2024-05-03 10:39:00+00:00,250.6697,2.3,12.17,47.84626,-54.09684
2024-05-03 10:49:00+00:00,247.2848,2.2,12.17,47.84626,-54.09684
2024-05-03 10:59:00+00:00,241.2314,2.2,12.17,47.84626,-54.09684
2024-05-03 11:09:00+00:00,236.3014,2.28,12.17,47.84626,-54.09684
2024-05-03 11:19:00+00:00,231.6831,2.3,12.25,47.84626,-54.09684
2024-05-03 11:29:00+00:00,227.8964,2.3,12.25,47.84626,-54.09684
2024-05-03 11:39:00+00:00,224.5814,2.3,12.25,47.84626,-54.09684
2024-05-03 11:49:00+00:00,223.1547,2.34,12.25,47.84626,-54.09684
2024-05-03 11:59:00+00:00,222.4781,2.4,12.25,47.84626,-54.09684
2024-05-03 12:09:00+00:00,220.8514,2.4,12.25,47.84626,-54.09684
2024-05-03 12:19:00+00:00,216.5798,2.4,12.25,47.84626,-54.09684
2024-05-03 12:29:00+00:00,214.2748,2.4,12.25,47.84626,-54.09684
2024-05-03 12:39:00+00:00,214.0881,2.4,12.25,47.84626,-54.09684
2024-05-03 12:49:00+00:00,212.9431,2.4,12.25,47.84626,-54.09684
2024-05-03 12:59:00+00:00,209.2448,2.4,12.25,47.84626,-54.09684
2024-05-03 13:09:00+00:00,208.4148,2.38,12.25,47.84626,-54.09684
2024-05-03 13:19:00+00:00,208.1597,2.38,12.33,47.84626,-54.09684
2024-05-03 13:29:00+00:00,205.6681,2.4,12.33,47.84626,-54.09684
2024-05-03 13:39:00+00:00,205.6048,2.4,12.33,47.84626,-54.09684
2024-05-03 13:49:00+00:00,206.2448,2.42,12.33,47.84626,-54.09684
2024-05-03 13:59:00+00:00,205.7848,2.43,12.33,47.84626,-54.09684
2024-05-03 14:09:00+00:00,204.6631,2.44,12.33,47.84626,-54.09684
2024-05-03 14:19:00+00:00,203.2431,2.46,12.41,47.84626,-54.09684
2024-05-03 14:29:00+00:00,202.9882,2.46,12.41,47.84626,-54.09684
2024-05-03 14:39:00+00:00,203.1448,2.46,12.41,47.84626,-54.09684
2024-05-03 14:49:00+00:00,204.7365,2.46,12.41,47.84626,-54.09684
2024-05-03 14:59:00+00:00,208.2747,2.45,12.41,47.84626,-54.09684
2024-05-03 15:09:00+00:00,212.4247,2.48,12.41,47.84626,-54.09684
2024-05-03 15:19:00+00:00,213.6564,2.5,12.57,47.84626,-54.09684
2024-05-03 15:29:00+00:00,215.2598,2.5,12.57,47.84626,-54.09684
2024-05-03 15:39:00+00:00,219.9681,2.5,12.57,47.84626,-54.09684
2024-05-03 15:49:00+00:00,226.3864,2.49,12.57,47.84626,-54.09684
2024-05-03 15:59:00+00:00,230.5098,2.3,12.57,47.84626,-54.09684
2024-05-03 16:09:00+00:00,234.8997,2.4,12.57,47.84626,-54.09684
2024-05-03 16:19:00+00:00,239.9814,2.4,12.73,47.84626,-54.09684
2024-05-03 16:29:00+00:00,245.1298,2.4,12.73,47.84626,-54.09684
2024-05-03 16:39:00+00:00,247.9832,2.3,12.73,47.84626,-54.09684
2024-05-03 16:49:00+00:00,250.0281,2.1,12.73,47.84626,-54.09684
2024-05-03 16:59:00+00:00,256.1931,2.1,12.73,47.84626,-54.09684
2024-05-03 17:09:00+00:00,263.4731,2.0,12.73,47.84626,-54.09684
2024-05-03 17:19:00+00:00,265.9782,2.0,12.81,47.84626,-54.09684
2024-05-03 17:29:00+00:00,268.6414,1.99,12.81,47.84626,-54.09684
2024-05-03 17:39:00+00:00,276.738,2.18,12.81,47.84626,-54.09684
2024-05-03 17:49:00+00:00,283.2798,1.89,12.81,47.84626,-54.09684
2024-05-03 17:59:00+00:00,285.8214,2.24,12.81,47.84626,-54.09684
2024-05-03 18:09:00+00:00,290.2647,2.45,12.81,47.84626,-54.09684
2024-05-03 18:19:00+00:00,298.353,2.6,12.65,47.84626,-54.09684
2024-05-03 18:29:00+00:00,301.218,2.7,12.65,47.84626,-54.09684
2024-05-03 18:39:00+00:00,301.1997,2.8,12.65,47.84626,-54.09684
2024-05-03 18:49:00+00:00,304.343,2.8,12.65,47.84626,-54.09684
2024-05-03 18:59:00+00:00,308.0263,2.8,12.65,47.84626,-54.09684
2024-05-03 19:09:00+00:00,307.8613,2.61,12.65,47.84626,-54.09684
2024-05-03 19:19:00+00:00,309.4414,2.65,12.57,47.84626,-54.09684
2024-05-03 19:29:00+00:00,314.6263,2.64,12.57,47.84626,-54.09684
2024-05-03 19:39:00+00:00,315.533,2.5,12.57,47.84626,-54.09684
2024-05-03 19:49:00+00:00,313.3364,2.4,12.57,47.84626,-54.09684
2024-05-03 19:59:00+00:00,313.2996,2.2,12.57,47.84626,-54.09684
2024-05-03 20:09:00+00:00,315.9148,2.1,12.57,47.84626,-54.09684
2024-05-03 20:19:00+00:00,314.2612,2.11,12.41,47.84626,-54.09684
2024-05-03 20:29:00+00:00,313.2613,2.1,12.41,47.84626,-54.09684
2024-05-03 20:39:00+00:00,312.0598,2.1,12.41,47.84626,-54.09684
2024-05-03 20:49:00+00:00,309.7079,2.12,12.41,47.84626,-54.09684
2024-05-03 20:59:00+00:00,305.5697,2.17,12.41,47.84626,-54.09684
2024-05-03 21:09:00+00:00,301.0047,2.19,12.41,47.84626,-54.09684
2024-05-03 21:19:00+00:00,298.2764,2.2,12.33,47.84626,-54.09684
2024-05-03 21:29:00+00:00,295.048,2.2,12.33,47.84626,-54.09684
2024-05-03 21:39:00+00:00,288.9214,2.2,12.33,47.84626,-54.09684
2024-05-03 21:49:00+00:00,284.123,2.2,12.33,47.84626,-54.09684
2024-05-03 21:59:00+00:00,281.5397,2.24,12.33,47.84626,-54.09684
2024-05-03 22:09:00+00:00,274.8364,2.69,12.33,47.84626,-54.09684
2024-05-03 22:19:00+00:00,267.6114,2.88,12.33,47.84626,-54.09684
2024-05-03 22:29:00+00:00,264.4247,2.9,12.33,47.84626,-54.09684
2024-05-03 22:39:00+00:00,260.5798,2.81,12.33,47.84626,-54.09684
2024-05-03 22:49:00+00:00,252.7615,2.8,12.33,47.84626,-54.09684
2024-05-03 22:59:00+00:00,248.6364,2.8,12.33,47.84626,-54.09684
2024-05-03 23:09:00+00:00,247.1281,2.8,12.33,47.84626,-54.09684
2024-05-03 23:19:00+00:00,242.4997,2.8,12.33,47.84626,-54.09684
2024-05-03 23:29:00+00:00,234.8731,2.8,12.33,47.84626,-54.09684
2024-05-03 23:39:00+00:00,231.1981,2.8,12.33,47.84626,-54.09684
2024-05-03 23:49:00+00:00,228.8881,2.8,12.33,47.84626,-54.09684
2024-05-03 23:59:00+00:00,222.8232,2.8,12.33,47.84626,-54.09684
